Home   Weather   Randers   Past weeks

Flag for Denmark Past Weather in Randers, Denmark — Yesterday and Last 2 Weeks

Now
30 °F

Ice fog.


Feels Like: 30 °F
Forecast: 35 / 49 °F
Wind: No wind

Location: Tirstrup

Current Time: Dec 6, 2016 at 9:15:34 am

Latest Report: Dec 6, 2016 at 8:20 am


Visibility: 0 mi

Pressure: 30.36 "Hg

Humidity: 100%

Dew Point: 30 °F

Location of RandersLocation

Past Weather in Randers — Graph

°F

Randers Temperature Yesterday

Maximum temperature yesterday: 46 °F (at 1:20 pm)
Minimum temperature yesterday: 37 °F (at 12:20 am)
Average temperature yesterday: 41 °F

High & Low Weather Summary for the Past Weeks

 TemperatureHumidityPressure
High64 °F (Nov 24, 1:20 pm)100% (Nov 24, 10:50 pm)30.51 "Hg (Nov 24, 10:50 pm)
Low23 °F (Dec 3, 3:50 am)39% (Nov 27, 5:50 pm)29.62 "Hg (Nov 22, 12:50 am)
Average41 °F79%30.10 "Hg
* Reported Nov 21 8:20 am — Dec 6 8:20 am, Randers, Weather by CustomWeather, © 2016

Note: Actual official high and low records may vary slightly from our data, if they occured in-between our weather recording intervals... More about our weather records

Advertising

Randers Weather History for the Previous 24 Hours

Scroll right to see more
 ConditionsComfort  
Time TempWeatherWind HumidityBarometerVisibility
8:20 am
Tue, Dec 6
30 °FIce fog.No wind100%30.36 "Hg0 mi
7:50 am30 °FIce fog.No wind100%30.36 "Hg2 mi
7:20 am34 °FIce fog.No wind93%30.33 "Hg0 mi
6:50 am34 °FIce fog.1 mph100%30.33 "Hg0 mi
6:20 am34 °FFog.1 mph100%30.30 "Hg0 mi
5:50 am34 °FFog.1 mph100%30.30 "Hg0 mi
5:20 am36 °FFog.1 mph100%30.30 "Hg1 mi
4:50 am34 °FFog.1 mph100%30.27 "Hg2 mi
4:20 am34 °FFog.1 mph100%30.27 "Hg0 mi
3:50 am36 °FFog.2 mph93%30.27 "Hg0 mi
3:20 am37 °FFog.1 mph100%30.27 "Hg0 mi
2:50 am39 °FFog.5 mph93%30.24 "Hg1 mi
2:20 am39 °FPassing clouds.3 mph100%30.24 "Hg4 mi
1:50 am41 °FPassing clouds.5 mph93%30.21 "Hg4 mi
1:20 am41 °FPassing clouds.7 mph93%30.21 "Hg5 mi
12:50 am41 °FPassing clouds.8 mph93%30.21 "Hg6 mi
12:20 am41 °FPassing clouds.7 mph93%30.21 "Hg6 mi
11:50 pm
Mon, Dec 5
41 °FPassing clouds.6 mph87%30.18 "HgN/A
11:20 pm41 °FPassing clouds.9 mph87%30.18 "HgN/A
10:50 pm41 °FPassing clouds.10 mph87%30.18 "HgN/A
10:20 pm41 °FPassing clouds.10 mph87%30.18 "HgN/A
9:50 pm41 °FPassing clouds.12 mph87%30.18 "HgN/A
9:20 pm41 °FPassing clouds.12 mph87%30.18 "HgN/A
8:50 pm41 °FPassing clouds.10 mph81%30.18 "HgN/A
8:20 pm41 °FPassing clouds.13 mph81%30.15 "HgN/A
7:50 pm41 °FPassing clouds.12 mph81%30.15 "HgN/A
7:20 pm41 °FPassing clouds.13 mph81%30.15 "HgN/A
6:50 pm41 °FPassing clouds.10 mph81%30.15 "HgN/A
6:20 pm41 °FPassing clouds.10 mph81%30.18 "HgN/A
5:50 pm41 °FQuite cool.13 mph81%30.15 "HgN/A
5:20 pm41 °FQuite cool.13 mph81%30.15 "HgN/A
4:50 pm43 °FQuite cool.13 mph76%30.15 "HgN/A
4:20 pm43 °FQuite cool.14 mph81%30.15 "HgN/A
3:50 pm43 °FPassing clouds.14 mph81%30.15 "HgN/A
3:20 pm45 °FPartly sunny.14 mph76%30.15 "HgN/A
2:50 pm45 °FPartly sunny.16 mph76%30.15 "HgN/A
2:20 pm46 °FPartly sunny.20 mph71%30.15 "HgN/A
1:50 pm46 °FScattered clouds.18 mph71%30.15 "HgN/A
1:20 pm46 °FPassing clouds.20 mph71%30.15 "HgN/A
12:50 pm45 °FQuite cool.17 mph76%30.15 "HgN/A
12:20 pm45 °FQuite cool.17 mph76%30.15 "HgN/A
11:50 am45 °FQuite cool.18 mph76%30.18 "HgN/A
11:20 am45 °FQuite cool.16 mph76%30.18 "HgN/A
10:50 am45 °FPassing clouds.16 mph76%30.18 "HgN/A
10:20 am43 °FOvercast.13 mph87%30.21 "HgN/A
9:50 am43 °FOvercast.14 mph87%30.18 "HgN/A
9:20 am43 °FOvercast.15 mph81%30.18 "HgN/A
Weather by CustomWeather, © 2016

See weather overviewHow to use our weather pages